TimeEST,TemperatureF,Dew PointF,Humidity,Sea Level PressureIn,VisibilityMPH,Wind Direction,Wind SpeedMPH,Gust SpeedMPH,PrecipitationIn,Events,Conditions,WindDirDegrees,DateUTC
12:13 AM,32.0,30.2,93,29.56,0.2,Calm,Calm,-,N/A,Fog,Fog,0,2013-02-20 05:13:00
12:19 AM,32.0,30.2,93,29.55,0.2,Calm,Calm,-,N/A,Fog,Fog,0,2013-02-20 05:19:00
12:23 AM,32.0,30.2,93,29.55,0.2,Calm,Calm,-,N/A,Fog,Fog,0,2013-02-20 05:23:00
12:54 AM,32.0,30.9,96,29.57,0.2,SSW,3.5,-,N/A,Fog,Fog,200,2013-02-20 05:54:00
1:04 AM,32.0,30.2,93,29.55,0.5,Calm,Calm,-,N/A,Fog,Fog,0,2013-02-20 06:04:00
1:21 AM,32.0,30.2,93,29.56,1.0,West,15.0,19.6,N/A,,Overcast,270,2013-02-20 06:21:00
1:27 AM,33.8,30.2,87,29.56,3.0,WNW,10.4,19.6,0.00,Snow,Light Snow,290,2013-02-20 06:27:00
1:54 AM,32.0,26.1,79,29.58,10.0,West,12.7,23.0,0.00,,Overcast,280,2013-02-20 06:54:00
2:54 AM,32.0,21.9,66,29.59,10.0,West,12.7,21.9,N/A,,Mostly Cloudy,270,2013-02-20 07:54:00
3:54 AM,30.9,21.0,67,29.60,10.0,West,15.0,23.0,N/A,,Overcast,260,2013-02-20 08:54:00
4:54 AM,28.9,16.0,58,29.62,10.0,West,17.3,27.6,N/A,,Overcast,270,2013-02-20 09:54:00
5:54 AM,28.0,15.1,58,29.62,10.0,WSW,8.1,19.6,N/A,,Mostly Cloudy,250,2013-02-20 10:54:00
6:54 AM,26.1,15.1,63,29.63,10.0,Variable,4.6,17.3,N/A,,Partly Cloudy,0,2013-02-20 11:54:00
7:54 AM,27.0,14.0,58,29.65,10.0,Calm,Calm,-,N/A,,Overcast,0,2013-02-20 12:54:00
8:54 AM,27.0,15.1,61,29.65,10.0,Variable,4.6,16.1,N/A,,Overcast,0,2013-02-20 13:54:00
9:54 AM,27.0,14.0,58,29.66,10.0,West,12.7,20.7,N/A,,Overcast,280,2013-02-20 14:54:00
10:54 AM,28.0,14.0,56,29.66,10.0,WSW,12.7,25.3,N/A,,Overcast,250,2013-02-20 15:54:00
11:54 AM,28.9,14.0,54,29.65,10.0,West,19.6,28.8,N/A,,Overcast,270,2013-02-20 16:54:00
12:54 PM,28.9,14.0,54,29.64,10.0,WSW,11.5,26.5,N/A,,Mostly Cloudy,250,2013-02-20 17:54:00
1:54 PM,28.0,12.0,51,29.65,10.0,West,17.3,29.9,N/A,,Overcast,260,2013-02-20 18:54:00
2:54 PM,28.0,12.9,53,29.65,10.0,WSW,16.1,29.9,N/A,,Overcast,250,2013-02-20 19:54:00
3:54 PM,27.0,12.9,56,29.67,10.0,WSW,13.8,21.9,N/A,,Overcast,250,2013-02-20 20:54:00
4:54 PM,26.1,10.9,53,29.68,10.0,West,12.7,19.6,N/A,,Overcast,260,2013-02-20 21:54:00
5:54 PM,25.0,10.9,55,29.70,10.0,WNW,11.5,16.1,N/A,,Overcast,290,2013-02-20 22:54:00
6:54 PM,24.1,10.9,57,29.73,10.0,West,10.4,21.9,N/A,,Mostly Cloudy,270,2013-02-20 23:54:00
7:54 PM,24.1,10.9,57,29.73,10.0,Variable,6.9,-,N/A,,Mostly Cloudy,0,2013-02-21 00:54:00
8:51 PM,24.8,10.4,54,29.72,7.0,West,11.5,26.5,0.00,Snow,Light Snow,260,2013-02-21 01:51:00
8:54 PM,24.1,12.0,60,29.75,8.0,West,18.4,25.3,0.00,Snow,Light Snow,280,2013-02-21 01:54:00
9:36 PM,23.0,14.0,68,29.74,2.5,WSW,9.2,-,0.00,Snow,Light Snow,250,2013-02-21 02:36:00
10:54 PM,24.1,12.9,62,29.77,5.0,West,12.7,25.3,0.00,Snow,Light Snow,270,2013-02-21 03:54:00
11:54 PM,24.1,10.9,57,29.78,9.0,West,11.5,23.0,0.00,Snow,Light Snow,260,2013-02-21 04:54:00